Torna al catalogo

SL-8 DEB

AttivoLEO
NORAD 21158·DEBRIS·🇷🇺 Russia

Lanciato Feb 12, 1991 da Plesetsk Cosmodrome

Loading…

Prossimi Passaggi (prossime 24 ore)

TLE

AggiornatoSource: Space-Track

Epoca: Sep 14, 2026, 13:40 UTC

1 21158U 91009V   26257.56955160  .00000231  00000-0  24860-2 0  9993
2 21158  74.1040 324.2259 0142821 304.9222 121.0587 12.13957470574371

Traccia SL-8 DEB in tempo reale con AllMySat

Download on the App Store